Regional Weather Roundup
Issued by NWS

Home | Current Version | Previous Version | Graphics & Text | Print | Product List | Glossary On
Versions: 1 2 3 4 5 6 7 8 9 10 11 12 13 14 15 16 17 18 19 20 21 22 23 24 25 26 27 28 29 30 31 32 33 34 35 36 37 38 39 40 41 42 43 44 45 46 47 48 49 50
000
ASUS43 KFSD 240010
RWRSD

WEATHER ROUNDUP FOR SOUTH DAKOTA
NATIONAL WEATHER SERVICE SIOUX FALLS SD
700 PM CDT TUE MAY 23 2017

NOTE: "FAIR" INDICATES FEW OR NO CLOUDS BELOW 12,000 FEET WITH NO
SIGNIFICANT WEATHER AND/OR OBSTRUCTIONS TO VISIBILITY.


SDZ001>005-009-010-012>017-240100-
NORTHWEST AND NORTH CENTRAL SOUTH DAKOTA

CITY           SKY/WX    TMP DP  RH WIND       PRES   REMARKS
BUFFALO          N/A     65  34  31 NE9       29.97F
FAITH            N/A     61  35  37 N14G23    30.01F
MOBRIDGE       PTSUNNY   63  36  36 N15       29.97F
$$

SDZ012>016-024>037-041>051-057-063-072>074-240100-
SOUTHWEST AND SOUTH CENTRAL SOUTH DAKOTA

CITY           SKY/WX    TMP DP  RH WIND       PRES   REMARKS
RAPID CTY ARPT SUNNY     63  34  33 N15       30.03F
PIERRE         PTSUNNY   56  38  50 N16       30.00S
CUSTER         SUNNY     55  26  32 NW7       30.08F
ELLSWORTH AFB  SUNNY     63  33  31 N14       30.03F
PHILIP         PTSUNNY   62  38  40 NE14G25   30.02S
PINE RIDGE     MOSUNNY   60  36  40 N18G25    30.04F
SPEARFISH      FAIR      59  36  41 NE6       30.07F
WINNER         CLOUDY    54  41  61 N15       29.99S
$$

SDZ004>011-016>023-039-040-240100-
NORTHEAST SOUTH DAKOTA

CITY           SKY/WX    TMP DP  RH WIND       PRES   REMARKS
ABERDEEN       CLOUDY    56  40  55 N17       29.96F
WATERTOWN      CLOUDY    52  45  77 N15G24    29.89S
BROOKINGS      CLOUDY    52  47  83 N13       29.88S
SISSETON         N/A     56  47  71 N20       29.91S
$$

SDZ017-020-022-023-036>040-048>070-240100-
SOUTHEAST SOUTH DAKOTA

CITY           SKY/WX    TMP DP  RH WIND       PRES   REMARKS
SIOUX FALLS    CLOUDY    54  46  74 N15       29.86S
HURON          CLOUDY    52  45  77 N14       29.94F
CHAMBERLAIN    CLOUDY    56  43  62 N10G18    29.97S
MITCHELL       CLOUDY    54  45  71 N21G29    29.93S
YANKTON        MOSUNNY   55  46  71 NW15G28   29.88R
$$

ABBREVIATIONS USED IN REMARKS
   TC - TEMPERATURE IN CELSIUS
  WCI - WIND CHILL INDEX
   HX - HEAT INDEX
  VSB - VISIBILITY




USA.gov is the U.S. government's official web portal to all federal, state and local government web resources and services.